User: anonymous   Login
Location: Unspecified
(0.0000°N, 0.0000°E)
Time: 14:53:08
(UTC+00:00)
Language:

Cosmos 1953 - Orbit

View from above orbital plane
View from above orbital plane
View from above satellite
View from above satellite

Ground track
Ground track

The orbit data is extracted from the following two-line orbital elements,

1 19210U 88050A   18202.56221900 -.00000170 +00000-0 -13783-4 0  9998
2 19210 082.5170 006.0635 0012487 344.3883 015.6957 15.05595603616794
Epoch (UTC): 21 July 2018 13:29:35
Eccentricity: 0.0012487
inclination: 82.5170°
perigee height: 541 km
apogee height: 558 km
right ascension of ascending node: 6.0635°
argument of perigee: 344.3883°
revolutions per day: 15.05595603
mean anomaly at epoch: 15.6957°
orbit number at epoch: 61679

The dashed part of the orbit path shows where the satellite is in the earth's shadow,  

DLR